Stations météo

Publicité
Hurguada, Egypte (62463): Température de l'air & dewpoint: 11.12.2017 04:00:00 - 17.12.2017 04:00:00 (EET)Hurguada, Egypte (62463): Vitesse du vent: 11.12.2017 04:00:00 - 17.12.2017 04:00:00 (EET)Hurguada, Egypte (62463): Direction du vent: 11.12.2017 04:00:00 - 17.12.2017 04:00:00 (EET)Hurguada, Egypte (62463): reduced air pressure: 11.12.2017 04:00:00 - 17.12.2017 04:00:00 (EET)Hurguada, Egypte (62463): visibility: 11.12.2017 04:00:00 - 17.12.2017 04:00:00 (EET)
Date & Time tt [°C] td [°C] ff [km/h] ff [knt] dd ppp [hPa] vv [km]
17.12.2017 04:00:00 - - - - - - -
17.12.2017 03:00:00 - - - - - - -
17.12.2017 02:00:00 14,2 10,3 11 6 NW 1020,4 10
17.12.2017 01:00:00 - - - - - - -
17.12.2017 00:00:00 - - - - - - -
16.12.2017 23:00:00 15,7 11,0 9 5 W 1020,4 10
16.12.2017 22:00:00 - - - - - - -
16.12.2017 21:00:00 - - - - - - -
16.12.2017 20:00:00 18,2 12,0 8 4 WNW 1020,7 10
16.12.2017 19:00:00 - - - - - - -
16.12.2017 18:00:00 - - - - - - -
16.12.2017 17:00:00 22,3 11,3 4 2 ESE 1018,6 10
16.12.2017 16:00:00 - - - - - - -
16.12.2017 15:00:00 - - - - - - -
16.12.2017 14:00:00 24,0 12,9 5 3 ENE 1019,1 10
16.12.2017 13:00:00 - - - - - - -
16.12.2017 12:00:00 - - - - - - -
16.12.2017 11:00:00 21,8 10,8 15 8 NNW 1021,6 10
16.12.2017 10:00:00 - - - - - - -
16.12.2017 09:00:00 - - - - - - -
16.12.2017 08:00:00 16,8 10,4 15 8 NW 1022,0 10
16.12.2017 07:00:00 - - - - - - -
16.12.2017 06:00:00 - - - - - - -
16.12.2017 05:00:00 16,1 10,1 16 9 NW 1020,7 10
16.12.2017 04:00:00 - - - - - - -
16.12.2017 03:00:00 - - - - - - -
16.12.2017 02:00:00 16,6 8,0 16 9 NW 1020,3 10
16.12.2017 01:00:00 - - - - - - -
16.12.2017 00:00:00 - - - - - - -
15.12.2017 23:00:00 17,2 8,6 13 7 WNW 1020,4 10
15.12.2017 22:00:00 - - - - - - -
15.12.2017 21:00:00 - - - - - - -
15.12.2017 20:00:00 18,9 10,7 15 8 NNW 1018,6 10
15.12.2017 19:00:00 - - - - - - -
15.12.2017 18:00:00 - - - - - - -
15.12.2017 17:00:00 21,7 10,2 22 12 N 1018,3 10
15.12.2017 16:00:00 - - - - - - -
15.12.2017 15:00:00 - - - - - - -
15.12.2017 14:00:00 23,0 9,0 24 13 N 1018,0 10
15.12.2017 13:00:00 - - - - - - -
15.12.2017 12:00:00 - - - - - - -
15.12.2017 11:00:00 22,0 10,0 31 17 N 1019,7 10
15.12.2017 10:00:00 - - - - - - -
15.12.2017 09:00:00 - - - - - - -
15.12.2017 08:00:00 16,8 8,2 21 11 WNW 1019,0 10
15.12.2017 07:00:00 - - - - - - -
15.12.2017 06:00:00 - - - - - - -
15.12.2017 05:00:00 15,8 7,8 21 11 NW 1017,5 10
15.12.2017 04:00:00 - - - - - - -
15.12.2017 03:00:00 - - - - - - -
15.12.2017 02:00:00 16,4 8,4 22 12 NW 1017,7 10
15.12.2017 01:00:00 - - - - - - -
15.12.2017 00:00:00 - - - - - - -
14.12.2017 23:00:00 17,3 8,4 28 15 NW 1017,8 10
14.12.2017 22:00:00 - - - - - - -
14.12.2017 21:00:00 - - - - - - -
14.12.2017 20:00:00 19,4 9,0 26 14 NNW 1017,5 10
14.12.2017 19:00:00 - - - - - - -
14.12.2017 18:00:00 - - - - - - -
14.12.2017 17:00:00 21,6 12,2 35 19 N 1015,8 10
14.12.2017 16:00:00 - - - - - - -
14.12.2017 15:00:00 - - - - - - -
14.12.2017 14:00:00 23,6 11,0 39 21 N 1016,1 10
14.12.2017 13:00:00 - - - - - - -
14.12.2017 12:00:00 - - - - - - -
14.12.2017 11:00:00 21,6 9,2 31 17 N 1018,0 10
14.12.2017 10:00:00 - - - - - - -
14.12.2017 09:00:00 - - - - - - -
14.12.2017 08:00:00 16,1 10,0 22 12 NW 1019,1 10
14.12.2017 07:00:00 - - - - - - -
14.12.2017 06:00:00 - - - - - - -
14.12.2017 05:00:00 15,0 10,2 15 8 NW 1017,3 10
14.12.2017 04:00:00 - - - - - - -
14.12.2017 03:00:00 - - - - - - -
14.12.2017 02:00:00 17,0 9,2 28 15 NW 1017,6 10
14.12.2017 01:00:00 - - - - - - -
14.12.2017 00:00:00 - - - - - - -
13.12.2017 23:00:00 17,9 9,8 24 13 NW 1018,0 10
13.12.2017 22:00:00 - - - - - - -
13.12.2017 21:00:00 - - - - - - -
13.12.2017 20:00:00 19,4 9,5 13 7 NW 1017,8 10
13.12.2017 19:00:00 - - - - - - -
13.12.2017 18:00:00 - - - - - - -
13.12.2017 17:00:00 22,9 10,0 24 13 N 1016,0 10
13.12.2017 16:00:00 - - - - - - -
13.12.2017 15:00:00 - - - - - - -
13.12.2017 14:00:00 15,2 13,4 34 18 N 1015,7 8
13.12.2017 13:00:00 - - - - - - -
13.12.2017 12:00:00 - - - - - - -
13.12.2017 11:00:00 23,5 12,7 22 12 NNW 1018,2 6
13.12.2017 10:00:00 - - - - - - -
13.12.2017 09:00:00 - - - - - - -
13.12.2017 08:00:00 18,3 8,0 24 13 NW 1019,0 10
13.12.2017 07:00:00 - - - - - - -
13.12.2017 06:00:00 - - - - - - -
13.12.2017 05:00:00 16,1 0,6 15 8 NW 1018,0 10
13.12.2017 04:00:00 - - - - - - -
13.12.2017 03:00:00 - - - - - - -
13.12.2017 02:00:00 16,2 6,5 15 8 NW 1018,0 10
13.12.2017 01:00:00 - - - - - - -
13.12.2017 00:00:00 - - - - - - -
12.12.2017 23:00:00 - - - - - - -
12.12.2017 22:00:00 - - - - - - -
12.12.2017 21:00:00 - - - - - - -
12.12.2017 20:00:00 18,5 12,3 4 2 WSW 1018,0 10
12.12.2017 19:00:00 - - - - - - -
12.12.2017 18:00:00 - - - - - - -
12.12.2017 17:00:00 23,3 15,9 0 0 N 1017,6 10
12.12.2017 16:00:00 - - - - - - -
12.12.2017 15:00:00 - - - - - - -
12.12.2017 14:00:00 28,1 9,9 5 3 E 1017,1 10
12.12.2017 13:00:00 - - - - - - -
12.12.2017 12:00:00 - - - - - - -
12.12.2017 11:00:00 25,6 -0,6 0 0 N 1019,6 10
12.12.2017 10:00:00 - - - - - - -
12.12.2017 09:00:00 - - - - - - -
12.12.2017 08:00:00 14,7 -0,6 4 2 N 1019,5 10
12.12.2017 07:00:00 - - - - - - -
12.12.2017 06:00:00 - - - - - - -
12.12.2017 05:00:00 13,6 0,6 2 1 WNW 1018,8 10
12.12.2017 04:00:00 - - - - - - -
12.12.2017 03:00:00 - - - - - - -
12.12.2017 02:00:00 15,8 10,2 5 3 WNW 1018,1 10
12.12.2017 01:00:00 - - - - - - -
12.12.2017 00:00:00 - - - - - - -
11.12.2017 23:00:00 16,6 6,1 11 6 NW 1019,7 10
11.12.2017 22:00:00 - - - - - - -
11.12.2017 21:00:00 - - - - - - -
11.12.2017 20:00:00 18,8 11,4 11 6 NW 1020,0 10
11.12.2017 19:00:00 - - - - - - -
11.12.2017 18:00:00 - - - - - - -
11.12.2017 17:00:00 23,3 6,1 0 0 N 1018,8 10
11.12.2017 16:00:00 - - - - - - -
11.12.2017 15:00:00 - - - - - - -
11.12.2017 14:00:00 24,6 6,9 9 5 NNW 1019,1 10
11.12.2017 13:00:00 - - - - - - -
11.12.2017 12:00:00 - - - - - - -
11.12.2017 11:00:00 22,6 3,7 15 8 NNW 1020,7 10
11.12.2017 10:00:00 - - - - - - -
11.12.2017 09:00:00 - - - - - - -
11.12.2017 08:00:00 - - - - - - -
11.12.2017 07:00:00 - - - - - - -
11.12.2017 06:00:00 - - - - - - -
11.12.2017 05:00:00 14,8 0,1 11 6 WNW 1019,8 10
11.12.2017 04:00:00 - - - - - - -

tt = Température de l'air
td = dewpoint
ff = Vitesse du vent
dd = Direction du vent
ppp = reduced air pressure
vv = visibility

stations d'obs. à proximité